Location: Asheville, NC
(35.6000°N, 82.5500°W)
Time: 00:28:10
(UTC-04:00)

CUTE 1.7 + AOD 2 - Pass Details

Date: 12 March 2018
Orbit: 594 x 613 km, 97.5° (Epoch: 22 June)

Event Time Altitude Azimuth Distance (km) Brightness Sun altitude
Rises 20:43:16 0° 210° (SSW) 2,815 ? -14.6°
Reaches altitude 10° 20:46:25 10° 236° (SW) 1,921 ? -15.3°
Maximum altitude 20:48:33 14° 267° (W) 1,692 ? -15.7°
Drops below altitude 10° 20:50:43 10° 299° (WNW) 1,931 ? -16.1°
Sets 20:53:54 0° 325° (NW) 2,843 ? -16.8°
